Regional Weather Roundup
Issued by NWS Jackson, KY

Home | Current Version | Previous Version | Text Only | Print | Product List | Glossary On
Versions: 1 2 3 4 5 6 7 8 9 10 11 12 13 14 15 16 17 18 19 20 21 22 23 24 25 26 27
000
ASUS43 KJKL 261410
RWRJKL

EAST KENTUCKY HOURLY WEATHER ROUNDUP
NATIONAL WEATHER SERVICE JACKSON KY
900 AM EST SUN FEB 26 2017

NOTE: "FAIR" INDICATES FEW OR NO CLOUDS BELOW 12,000 FEET WITH
NO SIGNIFICANT WEATHER AND/OR OBSTRUCTIONS TO VISIBILITY.

* THESE REPORTS ARE NOT UNDER NWS QUALITY CONTROL AND MAY NOT
  REPORT WEATHER SUCH AS PRECIPITATION AND FOG.

KYZ079-080-083-085-087-088-110-112-115-119-120-261500
...EASTERN KENTUCKY...

CITY           SKY/WX    TMP DP  RH WIND       PRES   REMARKS
JACKSON        SUNNY     30  20  66 VRB5      30.23R WCI  25
LONDON         SUNNY     30  21  69 NW3       30.24R
SOMERSET*      SUNNY     30  27  86 CALM      30.28R
MONTICELLO*    SUNNY     35  32  88 NE7       30.28R WCI  29
WILLIAMSBURG*  SUNNY     28  27  93 CALM      30.25R
MIDDLESBORO*   SUNNY     29  24  82 CALM      30.26R
HARLAN APT*    SUNNY     32  21  64 CALM      30.23R
PIKE CO APT*     N/A     31  20  64 SW3       30.22R
BIG SANDY APT* SUNNY     31  20  62 W7        30.23R WCI  25
MOREHEAD APT*  SUNNY     28  18  64 VRB3      30.26R
ASHLAND*       SUNNY     30  19  64 W9        30.24R WCI  22
$$

KYZ035-036-041-042-044-050-067-078-099-261500
...CENTRAL KENTUCKY...

CITY           SKY/WX    TMP DP  RH WIND       PRES   REMARKS
FLEMING/MASON* SUNNY     28  18  67 W8        30.25R WCI  20
DANVILLE*      SUNNY     30  23  74 CALM      30.25S
LEXINGTON      SUNNY     29  19  66 VRB3      30.24R
FRANKFORT      SUNNY     29  18  63 SW5       30.23R WCI  24
LOUISVILLE     MOSUNNY   32  17  54 SE7       30.23S WCI  26
LEBANON*         N/A     30  18  59 CALM      30.24S
GLASGOW*       SUNNY     30  27  88 CALM      30.24S
BOWLING GREEN  SUNNY     31  24  75 E5        30.24F WCI  26
$$

KYZ091>093-OHZ055-061-077-WVZ005-015-034-035-042-261500
...SOUTHERN OHIO/WEST VIRGINIA...

CITY           SKY/WX    TMP DP  RH WIND       PRES   REMARKS
COVINGTON      SUNNY     27  18  69 SW5       30.20R WCI  22
COLUMBUS       PTSUNNY   30  15  53 W10       30.19R WCI  21
DAYTON         MOSUNNY   26  18  71 SW7       30.18R WCI  18
WILMINGTON     SUNNY     27  18  69 W9        30.19R WCI  18
HUNTINGTON     SUNNY     31  17  56 SW10      30.23R WCI  22
CHARLESTON     MOSUNNY   32  17  54 W9        30.20R WCI  24
PINEVILLE*       N/A     32  15  51 MISG      30.22R
BECKLEY        SUNNY     27  14  58 W10       30.12R WCI  17
BLUEFIELD      MOSUNNY   24  14  65 NW12G21   30.11R WCI  13
LOGAN CO APT*    N/A     30  18  59 W9        30.18R WCI  22
$$

VAZ002-007-008-TNZ017-027-036-066-071-261500
...SOUTHWEST VIRGINIA/EAST TENNESSEE...

CITY           SKY/WX    TMP DP  RH WIND       PRES   REMARKS
WISE*          SUNNY     28  18  64 CALM      30.16R
JONESVILLE*      N/A     30  25  80 CALM      30.25R
ABINGDON*      SUNNY     32  20  61 W5        30.19R WCI  27
BRISTOL        SUNNY     33  19  56 W8        30.22R WCI  26
MORRISTOWN*    SUNNY     34  21  60 VRB3      30.23R
SEVIERVILLE*   SUNNY     32  25  74 CALM      30.26R
KNOXVILLE      SUNNY     35  22  58 NE5       30.25R WCI  31
LAFOLLETTE*    SUNNY     32  27  80 CALM      30.28R
OAK RIDGE      SUNNY     33  26  75 CALM      30.27R
CROSSVILLE     SUNNY     30  18  60 E6        30.21R WCI  24
NASHVILLE      SUNNY     35  29  78 E6        30.23F WCI  30
$$

...KEY TO REMARKS...
VSB - VISIBILITY IN MILES
WCI - WIND CHILL INDEX
HX  - HEAT INDEX

$$




USA.gov is the U.S. government's official web portal to all federal, state and local government web resources and services.